Content
SEND FEEDBACK

Daily
Averages
Monthly
Summary
United States of America

ST. LOUIS, MISSOURI


Home > North America > United States > Missouri
Elevation: 535 feet     Latitude: 38 45N     Longitude: 090 22W

WEATHER
 
SELECT A DAY
Number of Records: 196,291;   Date Range: 1/1/95 - 7/22/14
 
SHARE

PRINT THIS DATA

[ ← Previous Day ]
WEATHER ALMANAC - MARCH 18, 2013
[ Next Day → ]
[ °C ]   °F
Weather ElementAverageHighLow
Temperature40.8 °F50 °F (4:54 pm)37 °F (12:54 am)
Dewpoint33.1 °F37 °F (9:54 am)21.9 °F (10:54 pm)
Humidity76.4 %93 % (12:54 am)44 % (6:54 pm)
Barometer29.80 in30.05 in (11:54 pm)29.70 in (4:07 am)
Wind Speed9.9 mph20.7 mph (4:54 pm)
Wind Gust27.6 mph (3:54 pm)
Weather ElementAverage
Visibility7.7 mi
Wind DirectionWSW (248.3 °)

Weather ElementTotal
Precipitation0.04 in
Heating Degree Days21.5 (Base 65)
Averaged from 29 records on March 18, 2013
WEATHER CONDITIONS BREAKOUT
WIND DIRECTION BREAKOUT
WEATHER BY HOUR - MARCH 18, 2013
[ °C ]   °F
Local TimeTemperatureDewpointHumidityBarometerVisibilityWind DirectionWind SpeedGust SpeedPrecipitationEventsConditions
12:54 AM37.0 °F35.1 °F93 %29.77 in6.0 miNE (50°)6.9 mph0.02 inRainLight Rain
1:54 AM37.0 °F35.1 °F93 %29.75 in9.0 miNE (50°)6.9 mph0.00 inOvercast
2:54 AM37.0 °F35.1 °F93 %29.73 in8.0 miNE (50°)5.8 mphOvercast
3:54 AM37.0 °F35.1 °F93 %29.72 in3.0 miNorth (360°)3.5 mph0.00 inOvercast
4:07 AM37.4 °F35.6 °F93 %29.70 in2.5 miNorth (350°)3.5 mph0.01 inOvercast
4:54 AM37.0 °F35.1 °F93 %29.72 in3.0 miCalm0.01 inOvercast
5:54 AM37.0 °F35.1 °F93 %29.72 in6.0 miCalmOvercast
6:54 AM37.0 °F35.1 °F93 %29.73 in3.0 miWest (280°)3.5 mphOvercast
7:50 AM37.4 °F33.8 °F87 %29.72 in3.0 miWNW (290°)5.8 mphOvercast
7:54 AM37.0 °F34.0 °F89 %29.73 in3.0 miWNW (290°)4.6 mphOvercast
8:04 AM37.4 °F35.6 °F93 %29.72 in2.5 miWNW (290°)6.9 mphOvercast
8:54 AM37.0 °F35.1 °F93 %29.74 in6.0 miWest (270°)6.9 mphOvercast
9:04 AM37.4 °F35.6 °F93 %29.72 in7.0 miWest (260°)4.6 mphOvercast
9:45 AM39.2 °F35.6 °F87 %29.72 in10.0 miWest (280°)8.1 mphMostly Cloudy
9:54 AM39.9 °F37.0 °F89 %29.75 in10.0 miWest (280°)10.4 mphMostly Cloudy
10:54 AM41.0 °F35.1 °F79 %29.79 in10.0 miWNW (290°)15.0 mph21.9 mphOvercast
11:54 AM41.0 °F35.1 °F79 %29.81 in10.0 miWest (270°)15.0 mph23.0 mphOvercast
12:54 PM43.0 °F36.0 °F76 %29.81 in10.0 miWNW (290°)16.1 mph21.9 mphOvercast
1:54 PM44.1 °F36.0 °F73 %29.83 in10.0 miWNW (300°)15.0 mph23.0 mphOvercast
2:54 PM45.0 °F37.0 °F74 %29.83 in10.0 miWNW (290°)15.0 mph20.7 mphOvercast
3:54 PM46.9 °F35.1 °F63 %29.83 in10.0 miWNW (290°)18.4 mph27.6 mphMostly Cloudy
4:54 PM50.0 °F33.1 °F52 %29.83 in10.0 miWNW (300°)20.7 mph24.2 mphScattered Clouds
5:54 PM50.0 °F32.0 °F50 %29.83 in10.0 miWest (280°)15.0 mphClear
6:54 PM48.9 °F28.0 °F44 %29.87 in10.0 miWNW (300°)16.1 mph21.9 mphClear
7:54 PM46.0 °F28.9 °F51 %29.89 in10.0 miWest (280°)10.4 mphClear
8:54 PM45.0 °F27.0 °F49 %29.94 in10.0 miWNW (300°)12.7 mph19.6 mphClear
9:54 PM43.0 °F25.0 °F49 %29.96 in10.0 miWNW (300°)15.0 mphClear
10:54 PM39.9 °F21.9 °F49 %30.01 in10.0 miWNW (300°)11.5 mphClear
11:54 PM37.0 °F21.9 °F54 %30.05 in10.0 miNW (310°)12.7 mphClear
Hourly data recorded from KSUS, located miles away from St. Louis, Missouri







STORIES FROM OUR PARTNERS